Worland, WY

3:11 AM MDT on August 18, 2017 (GMT -0600)
Worland Municipal

Weather History for KWRL - June, 2013

Change the Weather History Date:

Thursday, June 27, 2013

  Actual Average Record
Temperature  
Mean Temperature 76 °F 68 °F  
Max Temperature 96 °F 85 °F 107 °F (1970)
Min Temperature 56 °F 52 °F 39 °F (1969)
Degree Days  
Heating Degree Days 0 1  
Month to date heating degree days 45 89  
Since 1 June heating degree days 45 89  
Since 1 July heating degree days 7466 7865  
Cooling Degree Days 11 5  
Month to date cooling degree days 94 68  
Year to date cooling degree days 111 80  
Since 1 June cooling degree days 94 68  
Growing Degree Days 25 (Base 50)    
Moisture  
Dew Point 45 °F    
Average Humidity 40    
Maximum Humidity 66    
Minimum Humidity 14    
Precipitation  
Precipitation 0.00 in 0.03 in 0.42 in (2014)
Month to date precipitation 0.09 1.08  
Year to date precipitation 2.78 4.24  
Sea Level Pressure  
Sea Level Pressure 30.03 in    
Wind  
Wind Speed 6 mph (NE)    
Max Wind Speed 13 mph    
Max Gust Speed 16 mph    
Visibility 10 miles    
Events      
T = Trace of Precipitation, MM = Missing Value Source: NWS Daily Summary

Daily Weather History Graph

Daily Weather History Graph

Search for Another Location

Airport or City:

Trip Planner

Search our weather history database for the weather conditions in past years. The results will help you decide how hot, cold, wet, or windy it might be!

Date:

Astronomy

Jun. 27, 2013 Rise Set
Actual Time 5:31 AM MDT 8:58 PM MDT
Civil Twilight 4:54 AM MDT 9:34 PM MDT
Nautical Twilight 4:07 AM MDT 10:22 PM MDT
Astronomical Twilight 3:06 AM MDT 11:22 PM MDT
Moon 11:45 PM MDT (6/27) 10:46 AM MDT (6/27)
Length of Visible Light 16h 39m
Length of Day
15h 27m
Waning Gibbous, 76% of the Moon is Illuminated
Jun 27
Waning Gibbous
Jun 29
Last Quarter
Jul 8
New
Jul 15
First Quarter
Jul 22
Full

Hourly Weather History & Observations

Time (MDT) Temp. Dew Point Humidity Pressure Visibility Wind Dir Wind Speed Gust Speed Precip Events Conditions
12:53 AM 68.0 °F 43.0 °F 40% 29.96 in 10.0 mi Calm Calm - N/A   Clear
1:53 AM 61.0 °F 41.0 °F 48% 29.98 in 10.0 mi Calm Calm - N/A   Clear
2:53 AM 59.0 °F 39.0 °F 48% 30.00 in 10.0 mi East 4.6 mph - N/A   Clear
3:53 AM 60.1 °F 45.0 °F 57% 30.01 in 10.0 mi ENE 4.6 mph - N/A   Clear
4:53 AM 57.0 °F 45.0 °F 64% 30.04 in 10.0 mi Calm Calm - N/A   Clear
5:53 AM 55.9 °F 44.1 °F 64% 30.06 in 10.0 mi ESE 3.5 mph - N/A   Clear
6:53 AM 63.0 °F 44.1 °F 50% 30.08 in 10.0 mi SSE 5.8 mph - N/A   Clear
7:53 AM 69.1 °F 45.0 °F 42% 30.09 in 10.0 mi South 3.5 mph - N/A   Clear
8:53 AM 71.1 °F 46.9 °F 42% 30.10 in 10.0 mi NW 3.5 mph - N/A   Clear
9:53 AM 75.0 °F 48.9 °F 40% 30.08 in 10.0 mi Variable 3.5 mph - N/A   Clear
10:53 AM 80.1 °F 50.0 °F 35% 30.07 in 10.0 mi Variable 4.6 mph - N/A   Clear
11:53 AM 84.0 °F 51.1 °F 32% 30.06 in 10.0 mi Variable 4.6 mph - N/A   Clear
12:53 PM 90.0 °F 44.1 °F 20% 30.03 in 10.0 mi NNE 6.9 mph - N/A   Clear
1:53 PM 91.9 °F 43.0 °F 18% 30.01 in 10.0 mi NNE 11.5 mph - N/A   Clear
2:53 PM 93.9 °F 37.9 °F 14% 30.00 in 10.0 mi North 9.2 mph - N/A   Clear
3:53 PM 95.0 °F 41.0 °F 15% 29.98 in 10.0 mi NNE 10.4 mph - N/A   Clear
4:53 PM 95.0 °F 43.0 °F 17% 29.97 in 10.0 mi NNE 9.2 mph - N/A   Clear
5:53 PM 95.0 °F 39.9 °F 15% 29.97 in 10.0 mi North 10.4 mph - N/A   Clear
6:53 PM 91.9 °F 46.0 °F 21% 29.96 in 10.0 mi NNE 6.9 mph - N/A   Clear
7:06 PM 91.4 °F 48.2 °F 23% 30.11 in 10.0 mi NNE 6.9 mph - N/A   Partly Cloudy
7:53 PM 89.1 °F 46.0 °F 22% 29.97 in 10.0 mi North 8.1 mph - N/A   Clear
8:53 PM 82.0 °F 46.9 °F 29% 29.99 in 10.0 mi NE 5.8 mph - N/A   Clear
9:53 PM 77.0 °F 48.0 °F 36% 30.05 in 10.0 mi Calm Calm - N/A   Clear
10:53 PM 75.9 °F 48.0 °F 37% 30.06 in 10.0 mi NNW 5.8 mph - N/A   Clear
11:53 PM 70.0 °F 46.9 °F 44% 30.07 in 10.0 mi South 6.9 mph - N/A   Clear